User: anonymous   Login
Location: Hohe Wand Kleine Kanzel
(47.8330°N, 16.0170°E)
Time: 07:18:09
(UTC+02:00)
Language:

Vanguard 2 Rocket - Orbit

View from above orbital plane
View from above orbital plane
View from above satellite
View from above satellite

Ground track
Ground track

The orbit data is extracted from the following two-line orbital elements,

1 00012U 59001B   21206.86400019 -.00000085  00000-0 -45123-4 0  9991
2 00012  32.9014  19.3887 1665357  36.9985 333.4589 11.44385244326207
Epoch (UTC): 25 July 2021 20:44:09
Eccentricity: 0.1665357
inclination: 32.9014°
perigee height: 554 km
apogee height: 3325 km
right ascension of ascending node: 19.3887°
argument of perigee: 36.9985°
revolutions per day: 11.44385244
mean anomaly at epoch: 333.4589°
orbit number at epoch: 32620

The dashed part of the orbit path shows where the satellite is in the earth's shadow,  

DLR